Regional Weather Roundup
Issued by NWS

Home | Current Version | Previous Version | Graphics & Text | Print | Product List | Glossary On
Versions: 1 2 3 4 5 6 7 8 9 10 11 12 13 14 15 16 17 18 19 20 21 22 23 24 25 26 27 28 29 30 31 32 33 34 35 36 37 38 39 40 41 42 43 44 45 46 47 48 49 50
000
ASUS45 KBOU 291007
RWRCO

WEATHER ROUNDUP FOR COLORADO
NATIONAL WEATHER SERVICE DENVER/BOULDER CO
300 AM MST MON DEC 29 2014

NOTE: "FAIR" INDICATES FEW OR NO CLOUDS BELOW 12000 FEET WITH NO
SIGNIFICANT WEATHER AND/OR OBSTRUCTIONS TO VISIBILITY.

COZ001>005-013-030-031-291100-
...NORTHWEST COLORADO...

CITY           SKY/WX    TMP DP  RH WIND       PRES   REMARKS
CRAIG          LGT SNOW  17  14  88 CALM      29.97S FOG
HAYDEN         MOCLDY    12  10  92 SE3       29.95S
MEEKER         CLOUDY    16  13  88 CALM      29.94F
MOUNT WERNER   NOT AVBL
STEAMBOAT SPGS CLOUDY    13  10  88 CALM      29.94S
WALDEN         MOCLDY     5   0  78 CALM      29.90R
$$

COZ006>008-011-291100-
...WEST CENTRAL VALLEYS...

CITY           SKY/WX    TMP DP  RH WIND       PRES   REMARKS
GRAND JUNCTION LGT SNOW  22  21  96 E5        30.00S FOG     WCI  16
MONTROSE       LGT SNOW  20  15  81 SE7       30.01R WCI  11
EAGLE          CLOUDY    16  14  93 CALM      29.97S
RIFLE          LGT SNOW  20  18  92 CALM      29.99S FOG
DELTA          LGT SNOW  22  18  87 NE7       30.00F WCI  13
NUCLA          CLOUDY    23  14  68 NW5       30.01R WCI  17
$$

COZ017>023-064>068-291100-
...SOUTHWEST COLORADO...

CITY           SKY/WX    TMP DP  RH WIND       PRES   REMARKS
DURANGO        CLOUDY     8   4  83 N6        30.00S WCI  -2
CORTEZ         PTCLDY     8   3  80 E7        29.99F WCI  -3
PAGOSA SPRINGS CLOUDY   N/A N/A N/A CALM      29.98S
TELLURIDE      NOT AVBL
WOLF CREEK PAS LGT SNOW   1   0  92 MISG      29.83S
$$

COZ009-010-012-014-032>034-037-058>063-291100-
...CENTRAL COLORADO...

CITY           SKY/WX    TMP DP  RH WIND       PRES   REMARKS
ASPEN          LGT SNOW  15  12  88 CALM      29.89S FOG
BUENA VISTA    CLOUDY    13   8  79 NW3       29.90R
COPPER MTN     MIX PCPN   5  -4  66 W9        29.77S WCI  -9
BERTHOUD PASS  NOT AVBL
COTTONWOOD PAS LGT SNOW  18  12  79 CALM      29.84R
GUNNISON       MOCLDY    -2 -17  50 CALM      29.94S
KREMMLING      CLOUDY     9   3  78 CALM      29.94R
LEADVILLE      LGT SNOW   7   3  84 N8        29.82R FOG     WCI  -6
MONARCH PASS   CLOUDY     5   1  85 MISG      29.88R
SALIDA         CLOUDY    20  10  66 SW9       29.97S WCI   9
SUNLIGHT       LGT SNOW N/A N/A N/A CALM      29.84R
WILKERSON PASS CLOUDY     7   3  85 SW7       29.83R WCI  -5
$$

COZ069>075-291100-
...SAN LUIS VALLEY/SANGRE DE CRISTO MOUNTAINS...

CITY           SKY/WX    TMP DP  RH WIND       PRES   REMARKS
ALAMOSA        PTCLDY    -5  -9  83 N7        29.94S WCI -19
LA VETA PASS   NOT AVBL
SAGUACHE       CLOUDY     0  -6  78 NW8       29.95F WCI -15
$$

COZ035-036-038>040-291100-
...NORTHERN COLORADO FRONT RANGE...

CITY           SKY/WX    TMP DP  RH WIND       PRES   REMARKS
DENVER INTL AP MOCLDY    12   8  84 S9        29.98R WCI   0
DMNS CITY PARK   N/A     16  10  75 SW1       30.00R
AURORA         MOCLDY    15  11  83 SE6       29.98R WCI   6
FRONT RANGE AP CLOUDY    16  12  86 S8        29.98R WCI   5
ERIE MUNI ARPT   N/A      6   3  90 MISG      30.01R
BOULDER MUN AP PTCLDY    18  10  73 CALM      29.99R
CENTENNIAL     CLOUDY    16  10  77 CALM      29.96R
BROOMFIELD     CLOUDY    21  10  63 N6        29.98R WCI  14
FORT COLLINS   MOCLDY    19  10  68 NE9       30.01R WCI   9
LONGMONT       MOCLDY     5   0  81 CALM      30.03R
$$

COZ041-046-047-076>085-087-088-291100-
...PIKES PEAK/PALMER DIVIDE AND SOUTHERN FOOTHILLS...

CITY           SKY/WX    TMP DP  RH WIND       PRES   REMARKS
COLO. SPRINGS  PTCLDY    14   5  67 N7        29.94R WCI   4
A. F. ACADEMY  PTCLDY    11   3  70 N6        29.92R WCI   1
ELLICOTT       NOT AVBL
FALCON         PTCLDY    18   6  59 N7        29.92S WCI   8
FORT CARSON    CLEAR     16   8  69 NW10      29.93R WCI   4
LIMON          CLEAR      8   2  76 NW3       29.97R
MONUMENT HILL  CLOUDY    12   5  73 CALM      29.90R
TRINIDAD       PTCLDY    15   5  64 W17       29.92F WCI  -1
$$

COZ042>045-048>051-090-091-291100-
...NORTHEAST COLORADO...

CITY           SKY/WX    TMP DP  RH WIND       PRES   REMARKS
GREELEY ARPT   CLOUDY     1  -4  78 SW6       30.01R WCI -10
AKRON          CLOUDY    16  12  84 W6        30.00R WCI   7
BURLINGTON     CLOUDY    16  12  84 NW10      30.01R WCI   4
WRAY           CLEAR      5   2  87 W3        30.05S
STERLING       CLEAR      9   7  92 CALM      30.03R
HOLYOKE        CLEAR     12   9  85 NW3       30.05R
FORT MORGAN    MOCLDY     8   5  89 NW7       30.03R WCI  -3
$$

COZ086-089-092>099-291100-
...SOUTHEAST COLORADO...

CITY           SKY/WX    TMP DP  RH WIND       PRES   REMARKS
PUEBLO         CLEAR     11   6  81 CALM      29.96R
LA JUNTA       CLEAR     14  11  87 N6        29.97F WCI   5
LAMAR          CLEAR     12   9  87 SW3       29.99R
SPRINGFIELD      N/A     19  12  74 NW10      29.95R WCI   7
$$


USA.gov is the U.S. government's official web portal to all federal, state and local government web resources and services.